ARKTIKA-M 1

Last updated on Wed Oct 29 2025 00:02:22 GMT+0000 (Coordinated Universal Time)

1 47719U 21016A 25301.21725539 -.00000009 00000+0 00000+0 0 9991 2 47719 63.1774 90.2047 7178887 268.9472 15.9308 2.00618746 34135
UTC large
Height (km)
Speed (km/s)
/
Latitude / Longitude
Inclination (degrees)
Orbital Period (minutes)
Azimuth
Elevation
Range (km)
Doppler Factor

Next 0 passes for location: London (51.5072 / 0.1276)

Sorry there are no passes over London.